Morgantown, WV

3:48 AM EDT on August 31, 2016 (GMT -0400)
Morgantown Municipal-Hart

Weather History for KMGW - December, 2003

Change the Weather History Date:

Saturday, December 13, 2003

  Actual Average Record
Temperature  
Mean Temperature 24 °F 35 °F  
Max Temperature 30 °F 43 °F 69 °F (2015)
Min Temperature 18 °F 28 °F -3 °F (1962)
Degree Days  
Heating Degree Days 41 30  
Month to date heating degree days 363  
Since 1 July heating degree days 1411  
Cooling Degree Days 0 0  
Month to date cooling degree days 0  
Year to date cooling degree days 814  
Moisture  
Dew Point 16 °F    
Average Humidity 71    
Maximum Humidity 92    
Minimum Humidity 47    
Precipitation  
Precipitation 0.00 in 0.10 in 1.91 in (2007)
Month to date precipitation 1.32  
Year to date precipitation 40.24  
Sea Level Pressure  
Sea Level Pressure 30.35 in    
Wind  
Wind Speed 4 mph (ENE)    
Max Wind Speed 13 mph    
Max Gust Speed 20 mph    
Visibility 9 miles    
Events Snow    
T = Trace of Precipitation, MM = Missing Value Source: NWS Daily Summary

Daily Weather History Graph

Daily Weather History Graph

Search for Another Location

Airport or City:

Trip Planner

Search our weather history database for the weather conditions in past years. The results will help you decide how hot, cold, wet, or windy it might be!

Date:

Astronomy

Dec. 13, 2003 Rise Set
Actual Time 7:31 AM EST 4:55 PM EST
Civil Twilight 7:01 AM EST 5:26 PM EST
Nautical Twilight 6:27 AM EST 5:59 PM EST
Astronomical Twilight 5:54 AM EST 6:32 PM EST
Moon 9:17 PM EST (12/13) 11:22 AM EST (12/13)
Length of Visible Light 10h 24m
Length of Day
9h 24m
Waning Gibbous, 79% of the Moon is Illuminated
Dec 13
Waning Gibbous
Dec 16
Last Quarter
Dec 23
New
Dec 30
First Quarter
Jan 7
Full

Hourly Weather History & Observations

Time (EST) Temp. Windchill Dew Point Humidity Pressure Visibility Wind Dir Wind Speed Gust Speed Precip Events Conditions
12:53 AM 23.0 °F - 16.0 °F 74% 30.38 in 10.0 mi Calm Calm - N/A   Clear
1:53 AM 21.9 °F - 15.1 °F 75% 30.39 in 10.0 mi Calm Calm - N/A   Clear
2:53 AM 19.9 °F - 17.1 °F 89% 30.40 in 10.0 mi Calm Calm - N/A   Unknown
3:53 AM 19.0 °F - 16.0 °F 88% 30.41 in 10.0 mi Calm Calm - N/A   Unknown
4:53 AM 18.0 °F - 15.1 °F 88% 30.42 in 10.0 mi Calm Calm - N/A   Clear
5:53 AM 18.0 °F - 15.1 °F 88% 30.44 in 8.0 mi Calm Calm - N/A   Clear
6:53 AM 18.0 °F - 16.0 °F 92% 30.46 in 7.0 mi Calm Calm - N/A   Mostly Cloudy
7:53 AM 18.0 °F - 16.0 °F 92% 30.48 in 7.0 mi Calm Calm - N/A   Mostly Cloudy
8:53 AM 19.0 °F 13.9 °F 16.0 °F 88% 30.48 in 7.0 mi NNE 3.5 mph - N/A   Mostly Cloudy
9:53 AM 23.0 °F 15.8 °F 18.0 °F 81% 30.46 in 10.0 mi NE 5.8 mph - N/A   Mostly Cloudy
10:53 AM 25.0 °F 20.7 °F 16.0 °F 69% 30.47 in 10.0 mi NE 3.5 mph - N/A   Mostly Cloudy
11:53 AM 27.0 °F 21.6 °F 17.1 °F 66% 30.44 in 10.0 mi Variable 4.6 mph - N/A   Clear
12:53 PM 28.0 °F 20.8 °F 14.0 °F 56% 30.40 in 10.0 mi ENE 6.9 mph - N/A   Clear
1:53 PM 28.0 °F 20.0 °F 14.0 °F 56% 30.38 in 10.0 mi NE 8.1 mph - N/A   Overcast
2:53 PM 28.9 °F 21.9 °F 14.0 °F 54% 30.35 in 10.0 mi Variable 6.9 mph - N/A   Overcast
3:53 PM 28.9 °F 22.8 °F 15.1 °F 56% 30.35 in 10.0 mi NE 5.8 mph - N/A   Scattered Clouds
4:53 PM 30.0 °F 22.4 °F 12.9 °F 49% 30.35 in 10.0 mi NE 8.1 mph - N/A   Overcast
5:53 PM 30.0 °F 22.4 °F 12.9 °F 49% 30.33 in 10.0 mi East 8.1 mph - N/A   Overcast
6:53 PM 30.0 °F 21.1 °F 12.0 °F 47% 30.31 in 10.0 mi ESE 10.4 mph - N/A   Overcast
7:16 PM 28.4 °F 18.5 °F 19.4 °F 69% 30.21 in 7.0 mi East 11.5 mph 17.3 mph 0.00 in Snow Light Snow
7:27 PM 26.6 °F 18.2 °F 23.0 °F 86% 30.20 in 2.5 mi NE 8.1 mph - 0.00 in Snow Light Snow
7:31 PM 26.6 °F 17.5 °F 23.0 °F 86% 30.20 in 4.0 mi ENE 9.2 mph - 0.00 in Snow Light Snow
7:53 PM 28.0 °F 18.6 °F 24.1 °F 85% 30.27 in 10.0 mi SSE 10.4 mph 19.6 mph 0.00 in   Overcast
8:53 PM 28.9 °F 19.8 °F 19.0 °F 67% 30.22 in 10.0 mi East 10.4 mph - N/A   Overcast
9:53 PM 30.0 °F 22.4 °F 15.1 °F 54% 30.21 in 10.0 mi East 8.1 mph - N/A   Overcast
10:53 PM 30.0 °F 21.7 °F 14.0 °F 51% 30.21 in 10.0 mi ESE 9.2 mph - N/A   Overcast
11:53 PM 30.0 °F 20.0 °F 15.1 °F 54% 30.18 in 10.0 mi ESE 12.7 mph 18.4 mph N/A   Overcast